Weather History for KEHR - April, 2013

Change the Weather History Date:

Wednesday, April 10, 2013

  Actual Average (WUND) Record (WUND)
Temperature  
Mean Temperature 74 °F -  
Max Temperature 84 °F - - (-1)
Min Temperature 64 °F - - (-1)
Cooling Degree Days 9    
Growing Degree Days 24 (Base 50)    
Moisture  
Dew Point 57 °F    
Average Humidity 55    
Maximum Humidity 68    
Minimum Humidity 42    
Precipitation  
Precipitation 0.00 in - - ()
Sea Level Pressure  
Sea Level Pressure 29.84 in    
Wind  
Wind Speed 11 mph (South)    
Max Wind Speed 21 mph    
Max Gust Speed 25 mph    
Visibility 10 miles    
Events      
Averages and records for this station are not official NWS values.
T = Trace of Precipitation, MM = Missing Value Source: NWS Daily Summary

Daily Weather History Graph

Daily Weather History Graph

Search for Another Location

Airport or City:

Trip Planner

Search our weather history database for the weather conditions in past years. The results will help you decide how hot, cold, wet, or windy it might be!

Date:

Astronomy

Apr. 10, 2013 Rise Set
Actual Time 6:22 AM CDT 7:22 PM CDT
Civil Twilight 5:55 AM CDT 7:49 PM CDT
Nautical Twilight 5:23 AM CDT 8:21 PM CDT
Astronomical Twilight 4:50 AM CDT 8:54 PM CDT
Moon 6:18 AM CDT (4/10) 7:56 PM CDT (4/10)
Length of Visible Light 13h 53m
Length of Day
12h 59m
New Moon, 0% of the Moon is Illuminated
Apr 10
New Moon
Apr 18
First Quarter
Apr 25
Full
May 2
Last Quarter
May 9
New

Hourly Weather History & Observations

Time (CDT) Temp. Heat Index Dew Point Humidity Pressure Visibility Wind Dir Wind Speed Gust Speed Precip Events Conditions
12:15 AM 66.2 °F - 53.6 °F 64% 29.90 in 10.0 mi SSE 9.2 mph - N/A   Partly Cloudy
12:35 AM 66.2 °F - 53.6 °F 64% 29.89 in 10.0 mi SSE 8.1 mph - N/A   Clear
12:55 AM 66.2 °F - 53.6 °F 64% 29.88 in 10.0 mi SE 8.1 mph - N/A   Clear
1:15 AM 66.2 °F - 53.6 °F 64% 29.88 in 10.0 mi SSE 6.9 mph - N/A   Clear
1:35 AM 64.4 °F - 53.6 °F 68% 29.89 in 10.0 mi South 4.6 mph - N/A   Clear
1:55 AM 64.4 °F - 53.6 °F 68% 29.88 in 10.0 mi South 8.1 mph - N/A   Clear
2:15 AM 68.0 °F - 55.4 °F 64% 29.87 in 10.0 mi SSW 11.5 mph - N/A   Clear
2:35 AM 69.8 °F - 55.4 °F 60% 29.87 in 10.0 mi South 11.5 mph - N/A   Clear
2:55 AM 69.8 °F - 55.4 °F 60% 29.86 in 10.0 mi South 11.5 mph - N/A   Clear
3:15 AM 69.8 °F - 55.4 °F 60% 29.87 in 10.0 mi South 12.7 mph - N/A   Clear
3:35 AM 69.8 °F - 55.4 °F 60% 29.87 in 10.0 mi South 10.4 mph - N/A   Clear
3:55 AM 69.8 °F - 55.4 °F 60% 29.88 in 10.0 mi South 10.4 mph - N/A   Clear
4:15 AM 68.0 °F - 55.4 °F 64% 29.88 in 10.0 mi South 8.1 mph - N/A   Clear
4:35 AM 68.0 °F - 55.4 °F 64% 29.88 in 10.0 mi SSW 10.4 mph - N/A   Clear
4:55 AM 68.0 °F - 55.4 °F 64% 29.89 in 10.0 mi South 9.2 mph - N/A   Clear
5:35 AM 66.2 °F - 53.6 °F 64% 29.90 in 10.0 mi SSW 9.2 mph - N/A   Partly Cloudy
5:55 AM 66.2 °F - 55.4 °F 68% 29.91 in 10.0 mi South 10.4 mph - N/A   Scattered Clouds
6:15 AM 66.2 °F - 55.4 °F 68% 29.90 in 10.0 mi South 9.2 mph - N/A   Mostly Cloudy
6:55 AM 68.0 °F - 55.4 °F 64% 29.91 in 10.0 mi South 9.2 mph - N/A   Mostly Cloudy
7:15 AM 68.0 °F - 55.4 °F 64% 29.91 in 10.0 mi South 9.2 mph - N/A   Overcast
7:35 AM 68.0 °F - 55.4 °F 64% 29.92 in 10.0 mi South 9.2 mph - N/A   Overcast
7:55 AM 69.8 °F - 55.4 °F 60% 29.93 in 10.0 mi South 10.4 mph - N/A   Overcast
8:15 AM 71.6 °F - 57.2 °F 60% 29.93 in 10.0 mi South 9.2 mph - N/A   Mostly Cloudy
8:35 AM 71.6 °F - 57.2 °F 60% 29.93 in 10.0 mi South 12.7 mph - N/A   Overcast
8:56 AM 73.4 °F - 57.2 °F 57% 29.93 in 10.0 mi South 13.8 mph - N/A   Overcast
9:15 AM 73.4 °F - 57.2 °F 57% 29.93 in 10.0 mi South 16.1 mph 23.0 mph N/A   Overcast
9:35 AM 75.2 °F - 59.0 °F 57% 29.92 in 10.0 mi South 17.3 mph - N/A   Scattered Clouds
9:55 AM 75.2 °F - 60.8 °F 61% 29.93 in 10.0 mi South 15.0 mph 23.0 mph N/A   Partly Cloudy
10:15 AM 77.0 °F - 60.8 °F 57% 29.94 in 10.0 mi South 15.0 mph 19.6 mph N/A   Mostly Cloudy
10:35 AM 78.8 °F - 59.0 °F 51% 29.93 in 10.0 mi South 17.3 mph - N/A   Overcast
10:55 AM 78.8 °F - 60.8 °F 54% 29.94 in 10.0 mi SSW 16.1 mph 21.9 mph N/A   Overcast
11:15 AM 80.6 °F 81.5 °F 60.8 °F 51% 29.93 in 10.0 mi South 20.7 mph 24.2 mph N/A   Overcast
11:35 AM 80.6 °F 81.5 °F 60.8 °F 51% 29.93 in 10.0 mi SSW 17.3 mph 25.3 mph N/A   Overcast
12:15 PM 80.6 °F 81.5 °F 60.8 °F 51% 29.90 in 10.0 mi South 17.3 mph - N/A   Scattered Clouds
1:15 PM 82.4 °F 82.9 °F 60.8 °F 48% 29.89 in 10.0 mi South 19.6 mph - N/A   Partly Cloudy
1:55 PM 82.4 °F 82.9 °F 60.8 °F 48% 29.87 in 10.0 mi SSW 20.7 mph 25.3 mph N/A   Mostly Cloudy
2:15 PM 82.4 °F 82.9 °F 60.8 °F 48% 29.86 in 10.0 mi SSW 17.3 mph - N/A   Partly Cloudy
2:55 PM 82.4 °F 82.9 °F 60.8 °F 48% 29.84 in 10.0 mi South 17.3 mph 21.9 mph N/A   Scattered Clouds
3:15 PM 84.2 °F 84.4 °F 60.8 °F 45% 29.83 in 10.0 mi SSW 19.6 mph 23.0 mph N/A   Clear
3:35 PM 82.4 °F 82.5 °F 59.0 °F 45% 29.82 in 10.0 mi South 13.8 mph 23.0 mph N/A   Clear
3:55 PM 82.4 °F 82.9 °F 60.8 °F 48% 29.81 in 10.0 mi South 15.0 mph 24.2 mph N/A   Partly Cloudy
4:15 PM 84.2 °F 84.4 °F 60.8 °F 45% 29.80 in 10.0 mi South 20.7 mph 25.3 mph N/A   Partly Cloudy
4:35 PM 82.4 °F 82.5 °F 59.0 °F 45% 29.80 in 10.0 mi South 15.0 mph 20.7 mph N/A   Mostly Cloudy
4:55 PM 82.4 °F 82.0 °F 57.2 °F 42% 29.78 in 10.0 mi South 18.4 mph - N/A   Scattered Clouds
5:15 PM 82.4 °F 82.5 °F 59.0 °F 45% 29.78 in 10.0 mi SSW 16.1 mph 24.2 mph N/A   Partly Cloudy
5:35 PM 82.4 °F 82.5 °F 59.0 °F 45% 29.77 in 10.0 mi South 17.3 mph 23.0 mph N/A   Partly Cloudy
5:55 PM 82.4 °F 82.0 °F 57.2 °F 42% 29.76 in 10.0 mi South 18.4 mph 24.2 mph N/A   Clear
6:15 PM 80.6 °F 80.8 °F 57.2 °F 45% 29.75 in 10.0 mi South 12.7 mph - N/A   Clear
6:55 PM 78.8 °F - 57.2 °F 47% 29.73 in 10.0 mi SSE 12.7 mph - N/A   Clear
7:15 PM 77.0 °F - 55.4 °F 47% 29.72 in 10.0 mi South 12.7 mph - N/A   Clear
7:35 PM 75.2 °F - 55.4 °F 50% 29.72 in 10.0 mi South 9.2 mph - N/A   Clear
7:55 PM 73.4 °F - 55.4 °F 53% 29.71 in 10.0 mi SSE 6.9 mph - N/A   Clear
8:15 PM 73.4 °F - 55.4 °F 53% 29.72 in 10.0 mi South 5.8 mph - N/A   Clear
8:35 PM 71.6 °F - 55.4 °F 57% 29.72 in 10.0 mi SSE 6.9 mph - N/A   Clear
8:55 PM 71.6 °F - 55.4 °F 57% 29.71 in 10.0 mi SSE 6.9 mph - N/A   Clear
9:15 PM 73.4 °F - 55.4 °F 53% 29.73 in 10.0 mi South 6.9 mph - N/A   Clear
9:35 PM 71.6 °F - 55.4 °F 57% 29.74 in 10.0 mi South 5.8 mph - N/A   Scattered Clouds
9:55 PM 73.4 °F - 55.4 °F 53% 29.74 in 10.0 mi South 9.2 mph - N/A   Mostly Cloudy
10:15 PM 73.4 °F - 55.4 °F 53% 29.72 in 10.0 mi SSE 15.0 mph - N/A   Mostly Cloudy
10:35 PM 75.2 °F - 55.4 °F 50% 29.72 in 10.0 mi SSE 13.8 mph 21.9 mph N/A   Partly Cloudy
10:55 PM 75.2 °F - 55.4 °F 50% 29.72 in 10.0 mi South 13.8 mph 19.6 mph N/A   Clear
11:15 PM 75.2 °F - 55.4 °F 50% 29.72 in 10.0 mi South 12.7 mph - N/A   Clear
11:35 PM 75.2 °F - 53.6 °F 47% 29.72 in 10.0 mi South 12.7 mph - N/A   Scattered Clouds
11:55 PM 75.2 °F - 53.6 °F 47% 29.72 in 10.0 mi South 11.5 mph - N/A   Overcast